When you browse on this site, cookies collect data to enhance your experience and personalize the content and advertising you see.
Visit our Privacy Policy to learn more. By continuing to use the site, you agree to this use of cookies and data.
  • In Hungary
  • List of Countries
  • For 7 days
  • Water Temperature
  • Satellite Maps
  • Weather Map
  • News
  • Weather Widgets
  • user-avatar
    Login

    Hourly Weather Linares

    Today, 17 November, Saturday

    Time Temperature Precipitation Wind Pressure Humidity
    00:00 +13°C° 0 mm 1 mps 725 mmHg 84%
    01:00 +13°C° 0 mm 1 mps 725 mmHg 85%
    02:00 +13°C° 0 mm 1 mps 725 mmHg 86%
    03:00 +12°C° 0 mm 1 mps 724 mmHg 87%
    04:00 +12°C° 0 mm 1 mps 724 mmHg 87%
    05:00 +12°C° 0 mm 1 mps 724 mmHg 88%
    06:00 +12°C° 0 mm 1 mps 724 mmHg 88%
    07:00 +13°C° 0 mm 1 mps 724 mmHg 82%
    08:00 +14°C° 0 mm 1 mps 724 mmHg 77%
    09:00 +16°C° 0 mm 1 mps 724 mmHg 71%
    10:00 +18°C° 0 mm 1 mps 724 mmHg 65%
    11:00 +18°C° 0 mm 2 mps 724 mmHg 58%
    12:00 +20°C° 0 mm 2 mps 724 mmHg 52%
    13:00 +20°C° 0 mm 2 mps 724 mmHg 51%
    14:00 +20°C° 0 mm 2 mps 723 mmHg 49%
    15:00 +20°C° 0 mm 2 mps 723 mmHg 48%
    16:00 +19°C° 0 mm 2 mps 722 mmHg 53%
    17:00 +19°C° 0 mm 1 mps 722 mmHg 59%
    18:00 +16°C° 0 mm 1 mps 722 mmHg 64%
    19:00 +16°C° 0 mm 1 mps 722 mmHg 66%
    20:00 +15°C° 0 mm 2 mps 721 mmHg 68%
    21:00 +15°C° 0 mm 2 mps 721 mmHg 70%
    22:00 +15°C° 0 mm 2 mps 721 mmHg 72%
    23:00 +14°C° 0 mm 2 mps 720 mmHg 74%

    Tomorrow, 18 November, Sunday

    Time Temperature Precipitation Wind Pressure Humidity
    00:00 +14°C° 0 mm 2 mps 720 mmHg 77%
    01:00 +14°C° 0 mm 2 mps 720 mmHg 77%
    02:00 +14°C° 0 mm 2 mps 719 mmHg 78%
    03:00 +13°C° 0 mm 2 mps 719 mmHg 78%
    04:00 +13°C° 0 mm 2 mps 718 mmHg 78%
    05:00 +13°C° 0 mm 2 mps 718 mmHg 78%
    06:00 +13°C° 0 mm 2 mps 718 mmHg 78%
    07:00 +14°C° 0.1 mm 2 mps 718 mmHg 75%
    08:00 +14°C° 0.1 mm 2 mps 718 mmHg 73%
    09:00 +15°C° 0.1 mm 1 mps 718 mmHg 70%
    10:00 +15°C° 0.5 mm 2 mps 718 mmHg 71%
    11:00 +15°C° 0.5 mm 2 mps 718 mmHg 72%
    12:00 +15°C° 0.5 mm 2 mps 717 mmHg 72%
    13:00 +15°C° 0.8 mm 2 mps 717 mmHg 74%
    14:00 +15°C° 0.8 mm 1 mps 717 mmHg 77%
    15:00 +14°C° 0.8 mm 1 mps 716 mmHg 79%
    16:00 +14°C° 0.4 mm 1 mps 716 mmHg 81%
    17:00 +14°C° 0.4 mm 1 mps 716 mmHg 84%
    18:00 +13°C° 0.4 mm 1 mps 716 mmHg 87%
    19:00 +13°C° 0.3 mm 1 mps 716 mmHg 87%
    20:00 +13°C° 0.3 mm 1 mps 716 mmHg 87%
    21:00 +13°C° 0.3 mm 1 mps 716 mmHg 87%
    22:00 +12°C° 0.1 mm 1 mps 716 mmHg 87%
    23:00 +12°C° 0.1 mm 1 mps 716 mmHg 87%

    Day after tomorrow, 19 November, Monday

    Time Temperature Precipitation Wind Pressure Humidity
    00:00 +12°C° 0.1 mm 1 mps 716 mmHg 88%
    01:00 +11°C° 0.1 mm 1 mps 715 mmHg 88%
    02:00 +11°C° 0.1 mm 1 mps 715 mmHg 88%
    03:00 +11°C° 0.1 mm 1 mps 715 mmHg 88%
    04:00 +11°C° 0.1 mm 1 mps 715 mmHg 89%
    05:00 +9°C° 0.1 mm 0 mps 715 mmHg 89%
    06:00 +9°C° 0.1 mm 0 mps 715 mmHg 90%
    07:00 +11°C° 0.1 mm 1 mps 715 mmHg 87%
    08:00 +11°C° 0.1 mm 1 mps 715 mmHg 85%
    09:00 +12°C° 0.1 mm 1 mps 715 mmHg 83%
    10:00 +13°C° 0.1 mm 1 mps 715 mmHg 80%
    11:00 +13°C° 0.1 mm 2 mps 715 mmHg 77%
    12:00 +13°C° 0.1 mm 3 mps 715 mmHg 74%
    13:00 +14°C° 0.2 mm 2 mps 715 mmHg 76%
    14:00 +13°C° 0.2 mm 2 mps 715 mmHg 77%
    15:00 +13°C° 0.2 mm 2 mps 715 mmHg 79%
    16:00 +13°C° 0.2 mm 2 mps 715 mmHg 83%
    17:00 +12°C° 0.2 mm 2 mps 715 mmHg 86%
    18:00 +12°C° 0.2 mm 2 mps 716 mmHg 90%
    19:00 +10°C° 0.1 mm 2 mps 716 mmHg 91%
    20:00 +10°C° 0.1 mm 2 mps 716 mmHg 92%
    21:00 +10°C° 0.1 mm 2 mps 717 mmHg 93%
    22:00 +10°C° 0.1 mm 2 mps 717 mmHg 94%
    23:00 +9°C° 0.1 mm 2 mps 717 mmHg 94%

    20 November, Tuesday

    Time Temperature Precipitation Wind Pressure Humidity
    00:00 +9°C° 0.1 mm 2 mps 717 mmHg 94%
    01:00 +9°C° 0 mm 2 mps 717 mmHg 95%
    02:00 +9°C° 0 mm 2 mps 716 mmHg 95%
    03:00 +10°C° 0 mm 1 mps 716 mmHg 95%
    04:00 +10°C° 0 mm 1 mps 716 mmHg 94%
    05:00 +10°C° 0 mm 1 mps 716 mmHg 94%
    06:00 +10°C° 0 mm 1 mps 716 mmHg 94%
    07:00 +10°C° 0 mm 1 mps 716 mmHg 90%
    08:00 +11°C° 0 mm 1 mps 717 mmHg 86%
    09:00 +12°C° 0 mm 1 mps 717 mmHg 82%
    10:00 +12°C° 0.1 mm 2 mps 717 mmHg 79%
    11:00 +13°C° 0.1 mm 2 mps 717 mmHg 76%
    12:00 +14°C° 0.1 mm 2 mps 716 mmHg 73%
    13:00 +12°C° 0.3 mm 3 mps 716 mmHg 74%
    14:00 +12°C° 0.3 mm 3 mps 716 mmHg 76%
    15:00 +12°C° 0.3 mm 3 mps 716 mmHg 77%
    16:00 +11°C° 0.4 mm 3 mps 716 mmHg 80%
    17:00 +11°C° 0.4 mm 3 mps 717 mmHg 84%
    18:00 +10°C° 0.4 mm 2 mps 717 mmHg 87%
    19:00 +10°C° 0.1 mm 2 mps 717 mmHg 88%
    20:00 +9°C° 0.1 mm 2 mps 718 mmHg 90%
    21:00 +9°C° 0.1 mm 2 mps 718 mmHg 91%
    22:00 +9°C° 0 mm 2 mps 718 mmHg 91%
    23:00 +9°C° 0 mm 2 mps 718 mmHg 92%

    21 November, Wednesday

    Time Temperature Precipitation Wind Pressure Humidity
    00:00 +9°C° 0 mm 2 mps 719 mmHg 92%
    01:00 +9°C° 0.1 mm 2 mps 719 mmHg 93%
    02:00 +9°C° 0.1 mm 2 mps 719 mmHg 93%
    03:00 +9°C° 0.1 mm 2 mps 719 mmHg 94%
    04:00 +9°C° 0.1 mm 2 mps 719 mmHg 93%
    05:00 +9°C° 0.1 mm 3 mps 719 mmHg 93%
    06:00 +9°C° 0.1 mm 3 mps 719 mmHg 92%
    07:00 +10°C° 0.1 mm 3 mps 720 mmHg 89%
    08:00 +10°C° 0.1 mm 3 mps 721 mmHg 86%
    09:00 +10°C° 0.1 mm 4 mps 721 mmHg 83%
    10:00 +11°C° 0 mm 4 mps 722 mmHg 76%
    11:00 +12°C° 0 mm 4 mps 722 mmHg 70%
    12:00 +13°C° 0 mm 4 mps 722 mmHg 63%
    13:00 +13°C° 0 mm 4 mps 722 mmHg 61%
    14:00 +13°C° 0 mm 4 mps 722 mmHg 59%
    15:00 +13°C° 0 mm 4 mps 722 mmHg 56%
    16:00 +12°C° 0 mm 3 mps 722 mmHg 63%
    17:00 +12°C° 0 mm 2 mps 722 mmHg 69%
    18:00 +10°C° 0 mm 1 mps 723 mmHg 75%
    19:00 +10°C° 0 mm 1 mps 723 mmHg 77%
    20:00 +9°C° 0 mm 1 mps 723 mmHg 79%
    21:00 +8°C° 0 mm 0 mps 724 mmHg 80%
    22:00 +9°C° 0 mm 1 mps 724 mmHg 80%
    23:00 +9°C° 0 mm 1 mps 724 mmHg 81%

    22 November, Thursday

    Time Temperature Precipitation Wind Pressure Humidity
    00:00 +9°C° 0 mm 1 mps 724 mmHg 81%
    01:00 +9°C° 0 mm 1 mps 724 mmHg 82%
    02:00 +9°C° 0 mm 1 mps 724 mmHg 82%
    03:00 +9°C° 0 mm 1 mps 724 mmHg 83%
    04:00 +9°C° 0 mm 1 mps 724 mmHg 83%
    05:00 +9°C° 0 mm 1 mps 724 mmHg 83%
    06:00 +9°C° 0 mm 1 mps 724 mmHg 83%
    07:00 +10°C° 0 mm 1 mps 725 mmHg 79%
    08:00 +10°C° 0 mm 1 mps 725 mmHg 76%
    09:00 +11°C° 0 mm 1 mps 726 mmHg 72%
    10:00 +12°C° 0 mm 1 mps 726 mmHg 68%
    11:00 +13°C° 0 mm 1 mps 726 mmHg 63%
    12:00 +14°C° 0 mm 2 mps 726 mmHg 59%
    13:00 +15°C° 0 mm 2 mps 726 mmHg 56%
    14:00 +15°C° 0 mm 2 mps 725 mmHg 53%
    15:00 +15°C° 0 mm 2 mps 725 mmHg 51%
    16:00 +14°C° 0 mm 2 mps 725 mmHg 57%
    17:00 +12°C° 0 mm 1 mps 726 mmHg 63%
    18:00 +11°C° 0 mm 1 mps 726 mmHg 70%
    19:00 +10°C° 0 mm 1 mps 726 mmHg 71%
    20:00 +10°C° 0 mm 1 mps 726 mmHg 72%
    21:00 +10°C° 0 mm 1 mps 727 mmHg 73%
    22:00 +9°C° 0 mm 1 mps 727 mmHg 73%
    23:00 +9°C° 0 mm 1 mps 727 mmHg 73%
    Show more